EW3662 Weather Reports


Display with metric or nautical units.
time (UTC)temp
F
wind
direction
speed
MPH
gust
MPH
rain 1hr
in
rain 24hr
in
rain mn
in
humidity
%
barometer
mb
20260505153237 34 0 0.0 1.0 0.08 0.51 0.47 93 1015.9
20260505153009 34 0 0.0 1.0 0.08 0.50 0.47 93 1015.9
20260505152238 34 0 0.0 1.0 0.09 0.50 0.46 93 1015.9
20260505151737 33 0 0.0 1.0 0.09 0.49 0.45 93 1015.9
20260505151237 33 0 0.0 1.0 0.08 0.48 0.44 93 1015.9
20260505150737 33 0 0.0 2.0 0.07 0.47 0.44 93 1016.0
20260505150512 33 0 0.0 2.0 0.07 0.47 0.43 93 1016.0
20260505140238 33 287 0.0 2.0 0.02 0.40 0.36 92 1016.0
20260505130238 34 0 1.0 2.0 0.05 0.38 0.34 92 1015.7
20260505124744 34 284 1.0 2.0 0.04 0.36 0.32 92 1015.3
20260505124739 34 0 1.0 2.0 0.05 0.37 0.33 92 1015.4
20260505124008 34 0 0.0 2.0 0.04 0.36 0.32 91 1015.3
20260505123237 34 284 0.0 2.0 0.03 0.35 0.31 92 1015.2
20260505122737 34 284 0.0 2.0 0.04 0.35 0.31 91 1015.2
20260505122240 34 284 0.0 2.0 0.03 0.34 0.30 91 1015.2
20260505121739 34 285 1.0 2.0 0.03 0.34 0.30 91 1015.1
20260505121510 34 0 2.0 3.0 0.03 0.34 0.30 91 1015.2
20260505120736 35 0 2.0 3.0 0.02 0.33 0.30 91 1015.2
20260505120237 35 0 2.0 3.0 0.02 0.33 0.29 91 1015.2
20260505120007 35 0 1.0 3.0 0.02 0.33 0.29 91 1015.2
20260505115235 35 0 1.0 2.0 0.02 0.33 0.29 91 1015.1
20260505114743 35 0 1.0 3.0 0.02 0.32 0.28 91 1015.0
20260505114737 35 0 1.0 2.0 0.01 0.32 0.28 91 1015.0
20260505113734 35 287 2.0 4.0 0.03 0.32 0.28 91 1015.0
20260505113235 35 0 1.0 4.0 0.03 0.31 0.28 91 1014.9
20260505112733 35 296 1.0 3.0 0.03 0.31 0.27 91 1014.7
20260505112502 35 0 1.0 3.0 0.04 0.31 0.27 91 1014.7
20260505111731 35 0 2.0 4.0 0.05 0.31 0.27 91 1014.9
20260505111233 35 0 2.0 5.0 0.06 0.31 0.27 91 1014.6
20260505110732 35 0 2.0 6.0 0.07 0.31 0.27 91 1014.5
20260505110233 35 0 2.0 6.0 0.08 0.31 0.27 91 1014.4
20260505101954 36 40 2.0 11.0 0.07 0.26 0.22 90 1014.3
20260505101220 36 32 3.0 8.0 0.07 0.25 0.21 90 1014.3
20260505100718 37 0 3.0 8.0 0.06 0.24 0.20 90 1014.2
20260505100215 37 0 3.0 9.0 0.06 0.23 0.19 89 1014.1
20260505095717 37 0 3.0 11.0 0.06 0.22 0.19 90 1013.9
20260505095216 37 339 2.0 11.0 0.06 0.22 0.18 90 1014.1
20260505094716 37 0 3.0 10.0 0.07 0.22 0.18 89 1014.2
20260505094212 37 0 4.0 10.0 0.08 0.22 0.18 89 1014.1
20260505093712 37 0 4.0 14.0 0.08 0.22 0.18 89 1014.1
20260505093442 38 0 4.0 14.0 0.08 0.21 0.17 89 1014.1
20260505092710 38 0 4.0 11.0 0.09 0.21 0.17 89 1014.2
20260505092209 38 0 5.0 13.0 0.09 0.21 0.17 88 1014.1
20260505091706 39 0 4.0 13.0 0.07 0.19 0.16 88 1013.9
20260505091206 40 0 3.0 9.0 0.06 0.18 0.15 89 1013.8
20260505090705 40 0 3.0 11.0 0.06 0.18 0.14 88 1013.9
20260505090205 40 0 3.0 11.0 0.05 0.17 0.13 89 1013.9
20260505085702 41 0 3.0 11.0 0.04 0.16 0.12 89 1013.8
20260505085203 41 0 3.0 11.0 0.04 0.16 0.12 89 1013.8
20260505084703 41 0 3.0 10.0 0.03 0.15 0.11 89 1013.7
20260505084201 41 0 3.0 6.0 0.03 0.14 0.10 89 1013.5
20260505083701 41 0 3.0 8.0 0.02 0.13 0.10 89 1013.5
20260505083431 41 0 3.0 8.0 0.03 0.13 0.09 89 1013.4
20260505082701 42 0 3.0 7.0 0.03 0.12 0.08 88 1013.4
20260505082201 42 0 3.0 9.0 0.04 0.12 0.08 88 1013.4
20260505081930 42 0 3.0 9.0 0.04 0.12 0.08 89 1013.4
20260505081201 42 0 1.0 3.0 0.05 0.12 0.08 89 1013.4
20260505080701 42 0 2.0 5.0 0.05 0.12 0.08 89 1013.1
20260505080159 42 0 2.0 5.0 0.05 0.12 0.08 89 1013.0
20260505075929 42 0 1.0 4.0 0.05 0.12 0.08 89 1013.1
20260505075158 42 0 1.0 3.0 0.05 0.12 0.08 89 1013.1
20260505074658 42 0 1.0 3.0 0.05 0.12 0.08 89 1013.2
20260505074427 42 0 1.0 3.0 0.05 0.11 0.07 88 1013.1
20260505073656 42 0 2.0 3.0 0.04 0.10 0.07 88 1013.1
20260505073155 43 0 2.0 5.0 0.04 0.10 0.06 88 1013.2
20260505072653 43 0 2.0 5.0 0.03 0.09 0.05 87 1013.2
20260505072155 43 0 2.0 5.0 0.02 0.08 0.05 87 1013.4
20260505071652 43 0 1.0 5.0 0.03 0.08 0.04 87 1013.4
20260505071151 43 0 2.0 4.0 0.03 0.07 0.03 86 1013.4
20260505070647 44 0 2.0 11.0 0.03 0.07 0.03 86 1013.2
20260505070418 44 0 3.0 14.0 0.03 0.07 0.03 86 1013.2
20260505065646 44 0 2.0 14.0 0.03 0.07 0.03 85 1013.1
20260505065144 44 0 1.0 5.0 0.03 0.07 0.03 84 1013.1
20260505064913 44 0 1.0 4.0 0.03 0.07 0.03 83 1013.0
20260505064414 45 0 1.0 3.0 0.02 0.06 0.02 82 1013.0
20260505063914 45 0 1.0 5.0 0.02 0.06 0.02 82 1013.0
20260505063410 45 0 2.0 5.0 0.02 0.06 0.02 82 1013.0
20260505062908 45 0 2.0 7.0 0.02 0.06 0.02 82 1012.9
20260505062137 46 281 2.0 7.0 0.02 0.06 0.02 82 1012.9
20260505061643 47 0 5.0 16.0 0.00 0.04 0.00 78 1012.6
20260505061637 47 0 3.0 11.0 0.01 0.05 0.01 81 1012.8
20260505060637 47 0 6.0 16.0 0.00 0.04 0.00 77 1012.6
20260505060137 48 0 7.0 17.0 0.00 0.04 0.00 77 1012.4
20260505055637 49 0 7.0 17.0 0.00 0.04 0.04 76 1012.3
20260505055139 49 0 3.0 14.0 0.00 0.04 0.04 81 1012.2
20260505054637 49 0 1.0 4.0 0.00 0.04 0.04 88 1012.1
20260505054138 49 0 0.0 2.0 0.00 0.04 0.04 88 1012.0
20260505053637 49 0 0.0 2.0 0.00 0.04 0.04 88 1011.7
20260505053136 49 0 0.0 0.0 0.00 0.04 0.04 88 1011.7
20260505052636 49 0 0.0 0.0 0.00 0.04 0.04 88 1011.6
20260505052136 49 0 0.0 1.0 0.00 0.04 0.04 87 1011.6
20260505051906 49 0 0.0 1.0 0.00 0.04 0.04 87 1011.5
20260505051135 49 0 0.0 0.0 0.00 0.04 0.04 87 1011.4
20260505050635 49 0 0.0 1.0 0.00 0.04 0.04 87 1011.4
20260505050404 49 0 0.0 1.0 0.00 0.04 0.04 88 1011.5
20260505041631 49 0 0.0 0.0 0.00 0.04 0.04 87 1011.3
20260505041132 49 0 0.0 0.0 0.00 0.04 0.04 87 1011.3
20260505040633 49 0 0.0 0.0 0.00 0.04 0.04 87 1011.3
20260505040131 49 0 0.0 0.0 0.00 0.04 0.04 87 1011.2
20260505035631 49 0 0.0 0.0 0.00 0.04 0.04 87 1011.2
20260505035132 49 0 0.0 0.0 0.00 0.04 0.04 87 1011.2
20260505034630 49 0 0.0 0.0 0.00 0.04 0.04 87 1011.2
20260505034129 49 0 0.0 0.0 0.00 0.04 0.04 87 1011.1
20260505033630 49 0 0.0 0.0 0.00 0.04 0.04 87 1011.1
20260505033131 49 0 0.0 0.0 0.00 0.04 0.04 87 1011.1
20260505032629 50 0 0.0 0.0 0.00 0.04 0.04 85 1011.1
20260505032130 50 0 0.0 0.0 0.00 0.04 0.04 85 1010.8
20260505031629 50 0 0.0 0.0 0.00 0.04 0.04 85 1010.8
20260505031129 50 0 0.0 0.0 0.00 0.04 0.04 84 1010.8
20260505030632 50 0 0.0 0.0 0.00 0.04 0.04 84 1010.7
20260505030628 50 0 0.0 0.0 0.00 0.04 0.04 84 1010.7
20260505025628 50 0 0.0 0.0 0.00 0.04 0.04 85 1010.6
20260505025128 50 0 0.0 0.0 0.00 0.04 0.04 84 1010.5
20260505024904 51 0 0.0 0.0 0.00 0.04 0.04 84 1010.4
20260505024628 50 0 0.0 0.0 0.00 0.04 0.04 84 1010.4
20260505023627 51 0 0.0 0.0 0.00 0.04 0.04 82 1010.2
20260505023128 51 0 0.0 0.0 0.00 0.04 0.04 82 1010.2
20260505022628 51 0 0.0 0.0 0.00 0.04 0.04 83 1010.2
20260505022126 51 0 0.0 0.0 0.00 0.04 0.04 82 1010.2
20260505021625 51 0 0.0 0.0 0.00 0.04 0.04 82 1010.1
20260505021126 51 0 0.0 0.0 0.00 0.04 0.04 81 1010.2
20260505020625 52 0 0.0 0.0 0.00 0.04 0.04 81 1010.2
20260505020126 52 0 0.0 2.0 0.00 0.04 0.04 81 1010.1
20260505015626 52 0 0.0 2.0 0.00 0.04 0.04 81 1010.2
20260505015124 52 0 1.0 2.0 0.00 0.04 0.04 81 1010.5
20260505014624 52 0 1.0 2.0 0.00 0.04 0.04 80 1010.4
20260505014124 52 0 1.0 2.0 0.01 0.04 0.04 80 1010.2
20260505013625 52 0 1.0 2.0 0.01 0.04 0.04 79 1010.2
20260505013356 52 0 0.0 2.0 0.01 0.04 0.04 79 1010.4
20260505012623 53 0 0.0 2.0 0.02 0.04 0.04 78 1010.2
20260505012125 53 0 0.0 1.0 0.02 0.04 0.04 78 1010.1
20260505011623 53 0 0.0 2.0 0.03 0.04 0.04 79 1010.2
20260505011124 53 0 1.0 2.0 0.04 0.04 0.04 80 1010.4
20260505010855 53 0 0.0 3.0 0.04 0.04 0.04 80 1010.2
20260505010123 53 0 0.0 3.0 0.04 0.04 0.04 81 1010.2
20260505005624 54 0 0.0 0.0 0.04 0.04 0.04 77 1010.1
20260505005122 54 0 0.0 1.0 0.04 0.04 0.04 75 1010.1
20260505004622 54 0 0.0 3.0 0.04 0.04 0.04 74 1010.1
20260505004122 55 0 0.0 3.0 0.03 0.03 0.03 75 1010.1
20260505003621 55 0 0.0 0.0 0.03 0.03 0.03 73 1010.2
20260505003121 56 0 0.0 0.0 0.03 0.03 0.03 71 1010.2
20260505002621 56 0 0.0 4.0 0.02 0.02 0.02 68 1010.2
20260505002122 57 0 1.0 4.0 0.02 0.02 0.02 67 1010.1
20260505001854 57 0 2.0 5.0 0.01 0.01 0.01 64 1010.1
20260505001351 58 0 3.0 6.0 0.00 0.00 0.00 59 1010.0
20260505000619 58 0 6.0 14.0 0.00 0.00 0.00 55 1009.9
20260505000120 59 0 6.0 14.0 0.00 0.00 0.00 53 1009.7
20260504235618 59 174 7.0 15.0 0.00 0.00 0.00 52 1009.6
20260504235118 60 0 8.0 16.0 0.00 0.00 0.00 51 1009.3
20260504234617 61 0 6.0 16.0 0.00 0.00 0.00 47 1009.2
20260504234117 62 0 4.0 11.0 0.00 0.00 0.00 43 1009.1
20260504233850 62 0 3.0 7.0 0.00 0.00 0.00 41 1009.0
20260504233118 63 0 2.0 4.0 0.00 0.00 0.00 41 1009.1
20260504232618 63 0 2.0 5.0 0.00 0.00 0.00 40 1009.0
20260504232118 63 0 2.0 5.0 0.00 0.00 0.00 40 1008.9
20260504231617 63 0 2.0 4.0 0.00 0.00 0.00 40 1008.7
20260504231117 63 0 3.0 6.0 0.00 0.00 0.00 39 1008.5
20260504230619 63 0 3.0 6.0 0.00 0.00 0.00 40 1008.5
20260504230117 64 0 3.0 6.0 0.00 0.00 0.00 39 1008.4
20260504225617 64 0 3.0 7.0 0.00 0.00 0.00 39 1008.2
20260504225116 64 0 4.0 7.0 0.00 0.00 0.00 38 1008.2
20260504224616 65 0 4.0 10.0 0.00 0.00 0.00 39 1008.2
20260504224115 65 0 6.0 11.0 0.00 0.00 0.00 40 1008.1
20260504223847 66 0 5.0 11.0 0.00 0.00 0.00 37 1008.2
20260504223117 67 0 5.0 10.0 0.00 0.00 0.00 35 1008.2
20260504222846 67 0 5.0 10.0 0.00 0.00 0.00 36 1008.4
20260504222115 67 0 4.0 9.0 0.00 0.00 0.00 36 1008.3
20260504222005 65 0 5.0 11.0 0.00 0.00 0.00 40 1008.3
20260504221853 67 0 5.0 9.0 0.00 0.00 0.00 40 1008.3
20260504220614 64 0 6.0 11.0 0.00 0.00 0.00 42 1008.4
20260504220114 64 0 5.0 11.0 0.00 0.00 0.00 40 1008.5
20260504215614 63 0 5.0 14.0 0.00 0.00 0.00 42 1008.6
20260504215113 63 0 6.0 14.0 0.00 0.00 0.00 42 1008.6
20260504214615 63 0 8.0 14.0 0.00 0.00 0.00 41 1008.9
20260504214346 63 0 10.0 15.0 0.00 0.00 0.00 40 1009.0
20260504213614 63 0 9.0 15.0 0.00 0.00 0.00 38 1008.9
20260504213115 63 0 7.0 13.0 0.00 0.00 0.00 38 1008.6
20260504212613 63 0 7.0 13.0 0.00 0.00 0.00 39 1008.4
20260504212113 63 0 9.0 22.0 0.00 0.00 0.00 39 1008.3
20260504211611 63 0 12.0 22.0 0.00 0.00 0.00 40 1008.3
20260504211112 63 0 14.0 25.0 0.00 0.00 0.00 41 1008.5
20260504210611 64 0 14.0 25.0 0.00 0.00 0.00 40 1008.7
20260504210112 64 0 12.0 22.0 0.00 0.00 0.00 39 1008.6
20260504205610 64 0 9.0 17.0 0.00 0.00 0.00 39 1008.7
20260504205342 64 0 9.0 17.0 0.00 0.00 0.00 38 1008.7
20260504204842 64 0 7.0 13.0 0.00 0.00 0.00 39 1008.9
20260504204109 63 0 7.0 13.0 0.00 0.00 0.00 38 1008.7
20260504203609 63 0 7.0 13.0 0.00 0.00 0.00 38 1008.7
20260504203108 63 0 7.0 14.0 0.00 0.00 0.00 38 1008.7
20260504202608 63 0 8.0 15.0 0.00 0.00 0.00 39 1009.1
20260504202339 63 0 9.0 15.0 0.00 0.00 0.00 40 1009.3
20260504201610 63 0 9.0 16.0 0.00 0.00 0.00 41 1009.4
20260504201110 63 0 10.0 19.0 0.00 0.00 0.00 38 1009.6
20260504200609 64 0 10.0 19.0 0.00 0.00 0.00 38 1009.6
20260504200110 64 0 11.0 19.0 0.00 0.00 0.00 38 1009.6
20260504195609 64 0 9.0 19.0 0.00 0.00 0.00 35 1009.3
20260504195109 64 0 9.0 18.0 0.00 0.00 0.00 38 1009.3
20260504194607 65 0 9.0 18.0 0.00 0.00 0.00 37 1009.2
20260504194107 65 0 8.0 16.0 0.00 0.00 0.00 38 1008.9
20260504193607 65 0 7.0 14.0 0.00 0.00 0.00 32 1008.4
20260504193113 66 0 8.0 16.0 0.00 0.00 0.00 32 1008.2
20260504193108 66 0 7.0 14.0 0.00 0.00 0.00 32 1008.3
20260504192108 66 0 8.0 17.0 0.00 0.00 0.00 32 1008.3
20260504191609 66 0 5.0 17.0 0.00 0.00 0.00 30 1008.4
20260504191109 67 0 6.0 14.0 0.00 0.00 0.00 30 1008.2
20260504190838 67 0 8.0 15.0 0.00 0.00 0.00 29 1008.1
20260504190108 68 0 7.0 17.0 0.00 0.00 0.00 28 1008.1
20260504185607 69 0 5.0 17.0 0.00 0.00 0.00 26 1007.9
20260504185107 70 0 4.0 7.0 0.00 0.00 0.00 27 1007.5
20260504184608 70 0 3.0 7.0 0.00 0.00 0.00 26 1007.6
20260504184108 70 0 3.0 9.0 0.00 0.00 0.00 26 1007.6
20260504183606 70 0 6.0 14.0 0.00 0.00 0.00 24 1007.6
20260504183337 71 0 6.0 14.0 0.00 0.00 0.00 25 1007.5
20260504182604 72 0 6.0 13.0 0.00 0.00 0.00 25 1007.6
20260504182110 73 0 3.0 10.0 0.00 0.00 0.00 23 1007.6
20260504182105 72 0 5.0 13.0 0.00 0.00 0.00 24 1007.6
20260504181106 73 0 5.0 14.0 0.00 0.00 0.00 22 1007.7
20260504180604 73 0 7.0 22.0 0.00 0.00 0.00 23 1007.6
20260504180110 73 0 7.0 14.0 0.00 0.00 0.00 23 1007.6
20260504180106 73 0 7.0 22.0 0.00 0.00 0.00 22 1007.2
20260504175106 74 0 8.0 16.0 0.00 0.00 0.00 23 1007.6
20260504174605 73 0 9.0 16.0 0.00 0.00 0.00 23 1007.7
20260504174105 73 0 9.0 15.0 0.00 0.00 0.00 23 1007.7
20260504173605 73 0 9.0 18.0 0.00 0.00 0.00 23 1007.7
20260504173105 73 0 8.0 18.0 0.00 0.00 0.00 23 1007.7
20260504172607 73 0 8.0 14.0 0.00 0.00 0.00 23 1007.8
20260504172338 73 0 7.0 14.0 0.00 0.00 0.00 24 1007.8
20260504171604 72 0 6.0 14.0 0.00 0.00 0.00 26 1007.8
20260504171104 72 0 6.0 14.0 0.00 0.00 0.00 27 1007.9
20260504170835 72 0 4.0 12.0 0.00 0.00 0.00 24 1007.9
20260504170104 72 0 4.0 9.0 0.00 0.00 0.00 25 1007.9